CW6102 Weather Reports


Display with metric or nautical units.
time (UTC)temp
F
wind
direction
speed
MPH
gust
MPH
rain 1hr
in
rain 24hr
in
rain mn
in
humidity
%
barometer
mb
20260506033705 53 153 2.0 5.0 0.00 0.49 0.48 92 1003.6
20260506033213 46 255 0.0 0.0 0.00 0.00 0.00 84 1024.7
20260506033205 53 153 1.0 8.0 0.00 0.49 0.48 92 1003.8
20260506032705 53 167 3.0 7.0 0.00 0.49 0.48 92 1003.8
20260506032213 46 255 0.0 0.0 0.00 0.00 0.00 84 1024.7
20260506032205 53 133 2.0 6.0 0.00 0.49 0.48 92 1003.8
20260506031704 53 149 1.0 3.0 0.00 0.49 0.48 92 1003.8
20260506031213 46 255 0.0 0.0 0.00 0.00 0.00 84 1024.7
20260506031205 53 149 2.0 5.0 0.00 0.49 0.48 92 1003.8
20260506030704 53 163 3.0 7.0 0.00 0.49 0.48 92 1003.8
20260506030213 46 255 0.0 0.0 0.00 0.00 0.00 84 1024.7
20260506030204 53 186 3.0 8.0 0.00 0.49 0.48 92 1003.9
20260506025213 46 255 0.0 0.0 0.00 0.00 0.00 84 1024.7
20260506025205 53 192 2.0 9.0 0.00 0.49 0.48 92 1003.8
20260506024704 53 174 2.0 6.0 0.00 0.49 0.48 92 1003.8
20260506024213 46 255 0.0 0.0 0.00 0.00 0.00 84 1024.7
20260506024205 53 176 2.0 7.0 0.00 0.49 0.48 93 1003.9
20260506023704 53 171 2.0 7.0 0.00 0.49 0.48 93 1003.9
20260506023213 46 255 0.0 0.0 0.00 0.00 0.00 84 1024.7
20260506023204 53 175 3.0 7.0 0.00 0.49 0.48 93 1004.0
20260506022704 53 181 1.0 5.0 0.00 0.49 0.48 93 1003.9
20260506022213 46 255 0.0 0.0 0.00 0.00 0.00 84 1024.7
20260506022204 53 186 1.0 5.0 0.00 0.49 0.48 93 1004.0
20260506021213 46 255 0.0 0.0 0.00 0.00 0.00 84 1024.7
20260506021204 53 182 0.0 5.0 0.00 0.49 0.48 93 1004.1
20260506020213 46 255 0.0 0.0 0.00 0.00 0.00 84 1024.7
20260506020204 53 146 3.0 6.0 0.00 0.49 0.48 93 1004.1
20260506015705 53 232 2.0 5.0 0.00 0.49 0.48 93 1004.1
20260506015213 46 255 0.0 0.0 0.00 0.00 0.00 84 1024.7
20260506015204 53 191 1.0 5.0 0.00 0.49 0.48 93 1004.0
20260506014704 53 172 1.0 3.0 0.00 0.49 0.48 93 1004.1
20260506014213 46 255 0.0 0.0 0.00 0.00 0.00 84 1024.7
20260506014204 53 184 0.0 3.0 0.00 0.49 0.48 93 1004.1
20260506013704 53 173 2.0 7.0 0.00 0.49 0.48 93 1004.1
20260506013213 46 255 0.0 0.0 0.00 0.00 0.00 84 1024.7
20260506013204 53 175 0.0 2.0 0.00 0.49 0.48 93 1004.2
20260506012704 53 208 0.0 2.0 0.00 0.49 0.48 93 1004.2
20260506012213 46 255 0.0 0.0 0.00 0.00 0.00 84 1024.7
20260506012205 53 160 1.0 2.0 0.00 0.49 0.48 93 1004.4
20260506011704 53 137 0.0 2.0 0.00 0.49 0.48 93 1004.4
20260506011213 46 255 0.0 0.0 0.00 0.00 0.00 84 1024.7
20260506011204 53 135 0.0 2.0 0.00 0.49 0.48 93 1004.4
20260506010704 53 137 0.0 2.0 0.00 0.49 0.48 93 1004.5
20260506010213 46 255 0.0 0.0 0.00 0.00 0.00 84 1024.7
20260506010204 53 144 0.0 5.0 0.00 0.49 0.48 93 1004.6
20260506005704 53 133 1.0 3.0 0.00 0.49 0.48 92 1004.6
20260506005213 46 255 0.0 0.0 0.00 0.00 0.00 84 1024.7
20260506005204 53 157 1.0 2.0 0.00 0.49 0.48 92 1004.6
20260506004704 53 138 2.0 5.0 0.01 0.49 0.48 93 1004.5
20260506004213 46 255 0.0 0.0 0.00 0.00 0.00 84 1024.7
20260506004204 53 145 0.0 1.0 0.02 0.49 0.48 93 1004.2
20260506003213 46 255 0.0 0.0 0.00 0.00 0.00 84 1024.7
20260506003205 53 146 0.0 1.0 0.05 0.49 0.48 93 1004.1
20260506002704 53 156 0.0 1.0 0.06 0.49 0.48 92 1004.2
20260506002213 46 255 0.0 0.0 0.00 0.00 0.00 84 1024.7
20260506002204 53 121 1.0 3.0 0.08 0.49 0.48 92 1004.0
20260506001704 53 156 0.0 2.0 0.09 0.49 0.48 92 1003.9
20260506001213 46 255 0.0 0.0 0.00 0.00 0.00 84 1024.7
20260506001204 53 118 1.0 5.0 0.12 0.49 0.48 92 1003.8
20260506000704 53 139 2.0 18.0 0.13 0.49 0.48 92 1003.7
20260506000213 46 255 0.0 0.0 0.00 0.00 0.00 84 1024.7
20260506000205 54 115 0.0 3.0 0.15 0.49 0.48 92 1003.8
20260505235705 54 105 0.0 2.0 0.16 0.49 0.48 92 1003.9
20260505235213 46 255 0.0 0.0 0.00 0.00 0.00 84 1024.7
20260505235205 53 98 0.0 2.0 0.17 0.49 0.48 92 1004.0
20260505234704 54 51 0.0 2.0 0.17 0.48 0.47 92 1004.3
20260505234213 46 255 0.0 0.0 0.00 0.00 0.00 84 1024.7
20260505234204 54 358 1.0 3.0 0.18 0.47 0.46 92 1004.4
20260505233704 54 184 1.0 3.0 0.19 0.46 0.45 92 1004.7
20260505232704 54 173 0.0 0.0 0.28 0.43 0.42 92 1005.1
20260505231213 46 255 0.0 0.0 0.00 0.00 0.00 84 1024.7
20260505231205 54 173 0.0 0.0 0.35 0.37 0.36 91 1005.6
20260505230704 54 174 1.0 2.0 0.34 0.35 0.35 91 1005.7
20260505230213 46 255 0.0 0.0 0.00 0.00 0.00 84 1024.7
20260505230204 54 173 1.0 3.0 0.33 0.34 0.33 91 1005.9
20260505225705 54 165 2.0 6.0 0.32 0.33 0.32 91 1006.0
20260505224704 54 200 0.0 2.0 0.30 0.31 0.30 90 1005.9
20260505224213 46 255 0.0 0.0 0.00 0.00 0.00 84 1024.7
20260505224204 54 248 1.0 2.0 0.28 0.29 0.28 89 1006.0
20260505223704 55 248 3.0 5.0 0.26 0.27 0.26 89 1005.9
20260505223213 46 255 0.0 0.0 0.00 0.00 0.00 84 1024.7
20260505223204 55 232 3.0 6.0 0.20 0.21 0.20 88 1005.9
20260505222704 56 237 3.0 6.0 0.14 0.15 0.14 87 1005.9
20260505222212 46 255 0.0 0.0 0.00 0.00 0.00 84 1024.7
20260505222204 56 307 3.0 8.0 0.08 0.09 0.08 86 1006.0
20260505221704 57 235 6.0 15.0 0.06 0.06 0.06 86 1006.0
20260505221212 46 255 0.0 0.0 0.00 0.00 0.00 84 1024.7
20260505221204 58 225 4.0 13.0 0.01 0.02 0.01 86 1006.0
20260505220704 58 263 3.0 14.0 0.01 0.02 0.01 86 1005.9
20260505215704 59 111 0.0 2.0 0.00 0.00 0.00 85 1005.3
20260505215212 46 255 0.0 0.0 0.00 0.00 0.00 84 1024.7
20260505215204 59 111 1.0 3.0 0.00 0.00 0.00 84 1005.4
20260505214704 59 130 3.0 5.0 0.00 0.00 0.00 84 1005.2
20260505214212 46 255 0.0 0.0 0.00 0.00 0.00 84 1024.7
20260505214204 59 99 2.0 5.0 0.00 0.00 0.00 83 1005.1
20260505213705 59 5 1.0 3.0 0.00 0.00 0.00 82 1004.9
20260505213213 46 255 0.0 0.0 0.00 0.00 0.00 84 1024.7
20260505213205 59 87 5.0 12.0 0.00 0.00 0.00 82 1004.6
20260505212704 59 83 3.0 8.0 0.00 0.00 0.00 81 1004.6
20260505212212 46 255 0.0 0.0 0.00 0.00 0.00 84 1024.7
20260505212204 59 73 3.0 6.0 0.00 0.00 0.00 81 1004.6
20260505211213 46 255 0.0 0.0 0.00 0.00 0.00 84 1024.7
20260505211204 59 61 3.0 7.0 0.00 0.00 0.00 81 1004.8
20260505210704 60 336 5.0 13.0 0.00 0.00 0.00 81 1005.0
20260505210213 46 255 0.0 0.0 0.00 0.00 0.00 84 1024.7
20260505210204 60 95 4.0 15.0 0.00 0.00 0.00 81 1004.9
20260505205704 60 65 5.0 14.0 0.00 0.00 0.00 81 1005.0
20260505205212 46 255 0.0 0.0 0.00 0.00 0.00 84 1024.7
20260505205204 60 42 5.0 8.0 0.00 0.00 0.00 81 1004.9
20260505204704 60 48 4.0 17.0 0.00 0.00 0.00 81 1004.9
20260505204212 46 255 0.0 0.0 0.00 0.00 0.00 84 1024.7
20260505204204 60 66 3.0 12.0 0.00 0.00 0.00 81 1005.0
20260505203704 60 71 2.0 6.0 0.00 0.00 0.00 81 1005.2
20260505202212 46 255 0.0 0.0 0.00 0.00 0.00 84 1024.7
20260505202204 60 86 2.0 5.0 0.00 0.00 0.00 80 1005.1
20260505201705 60 354 3.0 10.0 0.00 0.00 0.00 80 1005.1
20260505201212 46 255 0.0 0.0 0.00 0.00 0.00 84 1024.7
20260505201204 60 107 5.0 7.0 0.00 0.00 0.00 80 1005.1
20260505200212 46 255 0.0 0.0 0.00 0.00 0.00 84 1024.7
20260505200204 61 89 3.0 8.0 0.00 0.00 0.00 80 1005.1
20260505195704 61 80 5.0 12.0 0.00 0.00 0.00 80 1005.3
20260505195212 46 255 0.0 0.0 0.00 0.00 0.00 84 1024.7
20260505195204 61 94 2.0 9.0 0.00 0.00 0.00 80 1005.2
20260505194705 61 18 3.0 12.0 0.00 0.00 0.00 80 1005.2
20260505194212 46 255 0.0 0.0 0.00 0.00 0.00 84 1024.7
20260505194204 61 41 3.0 16.0 0.00 0.00 0.00 80 1005.2
20260505193704 61 94 2.0 5.0 0.00 0.00 0.00 80 1005.2
20260505192704 61 21 1.0 5.0 0.00 0.00 0.00 79 1005.2
20260505192212 46 255 0.0 0.0 0.00 0.00 0.00 84 1024.7
20260505192204 61 5 1.0 3.0 0.00 0.00 0.00 79 1005.2
20260505191704 61 69 1.0 6.0 0.00 0.00 0.00 78 1005.2
20260505191212 46 255 0.0 0.0 0.00 0.00 0.00 84 1024.7
20260505191203 62 354 3.0 6.0 0.00 0.00 0.00 78 1005.2
20260505190705 62 285 2.0 7.0 0.00 0.00 0.00 78 1005.2
20260505185704 62 12 3.0 7.0 0.00 0.00 0.00 78 1005.2
20260505185212 46 255 0.0 0.0 0.00 0.00 0.00 84 1024.7
20260505185203 62 31 2.0 5.0 0.00 0.00 0.00 78 1005.2
20260505184705 62 12 1.0 6.0 0.00 0.00 0.00 77 1005.1
20260505183212 46 255 0.0 0.0 0.00 0.00 0.00 84 1024.7
20260505183204 62 349 2.0 6.0 0.00 0.00 0.00 77 1005.2
20260505182704 62 12 2.0 6.0 0.00 0.00 0.00 77 1005.2
20260505182212 46 255 0.0 0.0 0.00 0.00 0.00 84 1024.7
20260505182203 63 264 2.0 7.0 0.00 0.00 0.00 77 1005.1
20260505181704 63 348 3.0 8.0 0.00 0.00 0.00 76 1005.2
20260505181212 46 255 0.0 0.0 0.00 0.00 0.00 84 1024.7
20260505181204 63 2 3.0 7.0 0.00 0.00 0.00 76 1005.3
20260505180704 63 349 4.0 7.0 0.00 0.00 0.00 75 1005.5
20260505180212 46 255 0.0 0.0 0.00 0.00 0.00 84 1024.7
20260505180205 63 347 3.0 9.0 0.00 0.00 0.00 74 1005.5
20260505175212 46 255 0.0 0.0 0.00 0.00 0.00 84 1024.7
20260505175203 63 353 2.0 7.0 0.00 0.00 0.00 73 1005.6
20260505174212 46 255 0.0 0.0 0.00 0.00 0.00 84 1024.7
20260505174204 64 17 4.0 9.0 0.00 0.00 0.00 73 1005.6
20260505173705 64 330 4.0 8.0 0.00 0.00 0.00 72 1005.5
20260505173212 46 255 0.0 0.0 0.00 0.00 0.00 84 1024.7
20260505173203 64 341 4.0 8.0 0.00 0.00 0.00 72 1005.6
20260505171703 64 357 3.0 6.0 0.00 0.00 0.00 71 1005.8
20260505171212 46 255 0.0 0.0 0.00 0.00 0.00 84 1024.7
20260505171204 64 358 4.0 8.0 0.00 0.00 0.00 71 1005.7
20260505170704 65 12 5.0 8.0 0.00 0.00 0.00 71 1005.7
20260505170212 46 255 0.0 0.0 0.00 0.00 0.00 84 1024.7
20260505170204 65 330 3.0 7.0 0.00 0.00 0.00 71 1005.7
20260505165703 65 354 3.0 8.0 0.00 0.00 0.00 71 1005.6
20260505165212 46 255 0.0 0.0 0.00 0.00 0.00 84 1024.7
20260505165206 65 337 3.0 8.0 0.00 0.00 0.00 71 1005.7
20260505164705 65 21 5.0 9.0 0.00 0.00 0.00 70 1005.6
20260505163706 66 359 4.0 10.0 0.00 0.00 0.00 70 1005.8
20260505163212 46 255 0.0 0.0 0.00 0.00 0.00 84 1024.7
20260505163205 66 339 2.0 6.0 0.00 0.00 0.00 70 1005.9
20260505162705 66 346 2.0 8.0 0.00 0.00 0.00 69 1005.9
20260505162212 46 255 0.0 0.0 0.00 0.00 0.00 84 1024.7
20260505162206 67 9 5.0 8.0 0.00 0.00 0.00 68 1005.9
20260505161212 46 255 0.0 0.0 0.00 0.00 0.00 84 1024.7
20260505161205 67 1 2.0 7.0 0.00 0.00 0.00 68 1005.9
20260505160706 67 355 3.0 6.0 0.00 0.00 0.00 67 1005.9
20260505160212 46 255 0.0 0.0 0.00 0.00 0.00 84 1024.7
20260505160206 67 2 5.0 7.0 0.00 0.00 0.00 65 1005.9
20260505153212 46 255 0.0 0.0 0.00 0.00 0.00 84 1024.7
20260505153206 68 347 3.0 8.0 0.00 0.00 0.00 63 1005.9
20260505152705 68 17 3.0 7.0 0.00 0.00 0.00 64 1006.0
20260505152212 46 255 0.0 0.0 0.00 0.00 0.00 84 1024.7
20260505152206 68 350 2.0 7.0 0.00 0.00 0.00 65 1006.2
20260505151705 67 331 1.0 6.0 0.00 0.00 0.00 66 1006.3
20260505151212 46 255 0.0 0.0 0.00 0.00 0.00 84 1024.7
20260505151205 67 355 5.0 7.0 0.00 0.00 0.00 66 1006.3
20260505150706 67 6 4.0 6.0 0.00 0.00 0.00 66 1006.3
20260505130212 46 255 0.0 0.0 0.00 0.00 0.00 84 1024.7
20260505130205 69 352 5.0 10.0 0.00 0.00 0.00 64 1006.8
20260505124705 69 342 4.0 10.0 0.00 0.00 0.00 64 1007.0
20260505124212 46 255 0.0 0.0 0.00 0.00 0.00 84 1024.7
20260505124205 70 328 6.0 10.0 0.00 0.00 0.00 64 1007.0
20260505123706 70 17 5.0 12.0 0.00 0.00 0.00 63 1006.9
20260505123212 46 255 0.0 0.0 0.00 0.00 0.00 84 1024.7
20260505123205 70 310 5.0 12.0 0.00 0.00 0.00 63 1006.8
20260505122705 70 347 6.0 10.0 0.00 0.00 0.00 63 1006.8
20260505122212 46 255 0.0 0.0 0.00 0.00 0.00 84 1024.7
20260505122205 70 298 5.0 12.0 0.00 0.00 0.00 61 1006.8
20260505121706 70 357 5.0 7.0 0.00 0.00 0.00 62 1006.8
20260505121212 46 255 0.0 0.0 0.00 0.00 0.00 84 1024.7
20260505121205 69 352 5.0 8.0 0.00 0.00 0.00 62 1006.9
20260505120705 69 290 4.0 8.0 0.00 0.00 0.00 63 1006.9
20260505120212 46 255 0.0 0.0 0.00 0.00 0.00 84 1024.7
20260505120205 69 293 5.0 9.0 0.00 0.00 0.00 63 1007.0
20260505115705 69 339 2.0 8.0 0.00 0.00 0.00 64 1006.9
20260505114706 69 305 6.0 12.0 0.00 0.00 0.00 65 1007.0
20260505114212 46 255 0.0 0.0 0.00 0.00 0.00 84 1024.7
20260505114205 69 307 6.0 9.0 0.00 0.00 0.00 66 1007.0
20260505113212 46 255 0.0 0.0 0.00 0.00 0.00 84 1024.7
20260505113206 69 316 6.0 12.0 0.00 0.00 0.00 67 1007.1
20260505110706 69 313 4.0 6.0 0.00 0.00 0.00 62 1007.3
20260505110211 46 255 0.0 0.0 0.00 0.00 0.00 84 1024.7
20260505110205 69 2 5.0 10.0 0.00 0.00 0.00 62 1007.3
20260505101705 66 341 5.0 8.0 0.00 0.00 0.00 70 1007.7
20260505101212 46 255 0.0 0.0 0.00 0.00 0.00 84 1024.7
20260505101205 66 350 4.0 7.0 0.00 0.00 0.00 70 1007.7
20260505100212 46 255 0.0 0.0 0.00 0.00 0.00 84 1024.7
20260505100206 66 333 6.0 9.0 0.00 0.00 0.00 70 1007.7
20260505095705 66 330 3.0 7.0 0.00 0.00 0.00 70 1007.8
20260505095211 46 255 0.0 0.0 0.00 0.00 0.00 84 1024.7
20260505095205 65 344 4.0 7.0 0.00 0.00 0.00 71 1007.9
20260505094705 66 289 6.0 12.0 0.00 0.00 0.00 70 1007.9
20260505094211 46 255 0.0 0.0 0.00 0.00 0.00 84 1024.7
20260505094205 66 266 4.0 12.0 0.00 0.00 0.00 71 1007.9
20260505093705 66 311 5.0 7.0 0.00 0.00 0.00 71 1007.9
20260505093211 46 255 0.0 0.0 0.00 0.00 0.00 84 1024.7
20260505093205 66 262 3.0 8.0 0.00 0.00 0.00 70 1008.0
20260505092705 66 262 4.0 9.0 0.00 0.00 0.00 70 1008.0
20260505092211 46 255 0.0 0.0 0.00 0.00 0.00 84 1024.7
20260505092205 66 281 5.0 8.0 0.00 0.00 0.00 69 1008.0
20260505091705 66 318 3.0 6.0 0.00 0.00 0.00 69 1007.9
20260505091212 46 255 0.0 0.0 0.00 0.00 0.00 84 1024.7
20260505091205 66 242 3.0 7.0 0.00 0.00 0.00 68 1007.9
20260505090706 65 337 3.0 6.0 0.00 0.00 0.00 68 1008.0
20260505090211 46 255 0.0 0.0 0.00 0.00 0.00 84 1024.7
20260505090205 65 270 4.0 7.0 0.00 0.00 0.00 68 1008.0
20260505085211 46 255 0.0 0.0 0.00 0.00 0.00 84 1024.7
20260505085205 64 7 1.0 3.0 0.00 0.00 0.00 70 1008.0
20260505084705 64 294 2.0 5.0 0.00 0.00 0.00 70 1008.1
20260505083705 63 257 3.0 6.0 0.00 0.00 0.00 73 1008.1
20260505083211 46 255 0.0 0.0 0.00 0.00 0.00 84 1024.7
20260505083206 62 253 3.0 5.0 0.00 0.00 0.00 74 1008.1
20260505082705 62 332 3.0 6.0 0.00 0.00 0.00 74 1008.1
20260505082211 46 255 0.0 0.0 0.00 0.00 0.00 84 1024.7
20260505082205 62 296 3.0 6.0 0.00 0.00 0.00 75 1008.1
20260505081705 62 337 4.0 5.0 0.00 0.00 0.00 75 1008.2
20260505081211 46 255 0.0 0.0 0.00 0.00 0.00 84 1024.7
20260505081205 61 341 1.0 3.0 0.00 0.00 0.00 76 1008.1
20260505080704 61 315 2.0 5.0 0.00 0.00 0.00 75 1008.1
20260505080211 46 255 0.0 0.0 0.00 0.00 0.00 84 1024.7
20260505080206 61 335 3.0 6.0 0.00 0.00 0.00 75 1008.1
20260505075705 61 333 3.0 6.0 0.00 0.00 0.00 75 1008.2
20260505075211 46 255 0.0 0.0 0.00 0.00 0.00 84 1024.7
20260505075205 61 310 4.0 7.0 0.00 0.00 0.00 75 1008.2
20260505074211 46 255 0.0 0.0 0.00 0.00 0.00 84 1024.7
20260505074205 61 267 3.0 6.0 0.00 0.00 0.00 76 1008.1
20260505073705 61 287 4.0 6.0 0.00 0.00 0.00 76 1008.2
20260505073211 46 255 0.0 0.0 0.00 0.00 0.00 84 1024.7
20260505073205 60 282 3.0 6.0 0.00 0.00 0.00 77 1008.2
20260505072705 60 269 3.0 6.0 0.00 0.00 0.00 77 1008.2
20260505072211 46 255 0.0 0.0 0.00 0.00 0.00 84 1024.7
20260505072205 60 320 4.0 7.0 0.00 0.00 0.00 77 1008.2
20260505071704 60 334 3.0 7.0 0.00 0.00 0.00 77 1008.2
20260505071211 46 255 0.0 0.0 0.00 0.00 0.00 84 1024.7
20260505071205 60 269 3.0 6.0 0.00 0.00 0.00 78 1008.3
20260505070704 60 293 3.0 7.0 0.00 0.00 0.00 79 1008.3
20260505070211 46 255 0.0 0.0 0.00 0.00 0.00 84 1024.7
20260505070205 60 341 5.0 6.0 0.00 0.00 0.00 78 1008.4
20260505065705 60 330 2.0 5.0 0.00 0.00 0.00 79 1008.5
20260505065211 46 255 0.0 0.0 0.00 0.00 0.00 84 1024.7
20260505065205 60 319 3.0 5.0 0.00 0.00 0.00 77 1008.4
20260505064705 60 236 2.0 5.0 0.00 0.00 0.00 77 1008.4
20260505063211 46 255 0.0 0.0 0.00 0.00 0.00 84 1024.7
20260505063206 60 212 1.0 3.0 0.00 0.00 0.00 78 1008.6
20260505062705 60 230 2.0 6.0 0.00 0.00 0.00 78 1008.6
20260505062211 46 255 0.0 0.0 0.00 0.00 0.00 84 1024.7
20260505062205 60 247 3.0 6.0 0.00 0.00 0.00 78 1008.6
20260505061705 60 246 3.0 7.0 0.00 0.00 0.00 77 1008.6
20260505061211 46 255 0.0 0.0 0.00 0.00 0.00 84 1024.7
20260505061205 60 271 4.0 6.0 0.00 0.00 0.00 78 1008.6
20260505060704 59 235 1.0 2.0 0.00 0.00 0.00 79 1008.6
20260505060211 46 255 0.0 0.0 0.00 0.00 0.00 84 1024.7
20260505060204 59 239 2.0 6.0 0.00 0.00 0.00 79 1008.6
20260505055704 59 255 3.0 6.0 0.00 0.00 0.00 80 1008.6
20260505055211 46 255 0.0 0.0 0.00 0.00 0.00 84 1024.7
20260505055204 59 288 3.0 6.0 0.00 0.00 0.00 80 1008.5
20260505054705 58 263 3.0 6.0 0.00 0.00 0.00 80 1008.5
20260505054211 46 255 0.0 0.0 0.00 0.00 0.00 84 1024.7
20260505054204 58 275 3.0 6.0 0.00 0.00 0.00 80 1008.5
20260505053704 58 225 1.0 3.0 0.00 0.00 0.00 81 1008.4
20260505053211 46 255 0.0 0.0 0.00 0.00 0.00 84 1024.7
20260505053205 58 242 1.0 2.0 0.00 0.00 0.00 82 1008.3
20260505052705 57 242 0.0 2.0 0.00 0.00 0.00 82 1008.2
20260505052211 46 255 0.0 0.0 0.00 0.00 0.00 84 1024.7
20260505052205 57 242 1.0 2.0 0.00 0.00 0.00 82 1008.2
20260505051211 46 255 0.0 0.0 0.00 0.00 0.00 84 1024.7
20260505051205 57 242 1.0 2.0 0.00 0.00 0.00 83 1008.2
20260505050704 57 242 0.0 1.0 0.00 0.00 0.00 84 1008.2
20260505041705 55 242 0.0 0.0 0.00 0.00 0.00 84 1008.4
20260505040211 46 255 0.0 0.0 0.00 0.00 0.00 84 1024.7
20260505040205 55 242 0.0 1.0 0.00 0.00 0.00 84 1008.3
20260505035705 55 242 1.0 2.0 0.00 0.00 0.00 84 1008.3